Volver al catálogo

CZ-3B R/B

ActivoHEO
NORAD 59070·ROCKET BODY·🇨🇳 China

Lanzado Feb 29, 2024 desde Xichang Satellite Launch Center

Loading…

Próximos Pases (próximas 24 horas)

TLE

ActualizadoSource: Space-Track

Época: Sep 14, 2026, 05:07 UTC

1 59070U 24040B   26257.21328436  .00133269 -23208-6  10616-2 0  9994
2 59070  27.2068 235.9256 6246229 246.3113  38.5538  3.77979942 27155

Sigue CZ-3B R/B en tiempo real con AllMySat

Download on the App Store